CZ-6A DEB, 54444

Orbit data source: Space-Track

CZ-6A DEB, 54444 is space debris in SSO originally from a launch on Fri, 11 Nov 2022 UTC launched from the Taiyaun Space Center, China (TSC). Debris objects in space refer to the collection of defunct objects orbiting the Earth. Examples of debris include non-operational satellites, rocket bodies, and fragments generated from explosions, collisions, or faulty payload assembly.

Loading next visibility...
Identifier
54444, 2022-151FU
Orbit
SSO
Country
Flag of CNCN / PRC
Related business
Manufacturer
SAST
Mission
Spacecraft
Bus & Motor
Unknown
Mass
Unknown
Launch date (UTC)
2022-11-11 (4 years ago)
Launch vehicle
Unknown
Launch site
Taiyaun Space Center, China (TSC)
Object type
Payload
Rocket body
Debris
Shape & HBR
Unknown shape, 0.3 m
Radar Cross Section
Medium (>0.1 m² and <1 m²)

Expand to show TLE details & history
Last TLE update: 2 days ago

TLE from 2 days ago
0 CZ-6A DEB
1 54444U 22151FU  26171.44645462  .00004699  00000-0  11142-2 0  9993
2 54444  98.7230 236.1585 0111053 228.8156 130.3420 14.50788424189469
Epoch: 2026-06-20T10:42Z
TLE epoch observation values (Epoch: 2026-06-20T10:42:53.679Z)
Latitude
0.00001°
Longitude
166.77388°
Altitude
777.595 km
Speed
7.438 km/s
True Right ascension
15h 44m 38s
True Declination
0° 00' 00"
Sunlit
Object was in full shadow at epoch
Visualization orbit readout
Latitude
Unknown
Longitude
Unknown
Altitude
Unknown
Speed
Unknown
Apparent Right ascension
Unknown
Apparent Declination
Unknown
Sunlit
N/A
Visualization observer readout
Local Sidereal Time
21:31:52
Azimuth
Unknown
Elevation
Unknown
Doppler factor
Unknown
Orbital elements
Apogee altitude
799.021 km
Perigee altitude
641.363 km
Semi-major axis
7,098.329 km
Eccentricity
0.01111
Inclination
98.723°
RAAN
236.1585°
Arg. of periapsis
228.8156°
True anomaly
131.30326°
Mean anomaly
130.342°
Eccentric anomaly
130.8235°
Mean motion
3.62918 °/min
Orbital period
99.2 mins
BSTAR
0.0011142
Loading maneuver chart data...
Computing Atmospheric mass density...
Loading historical data...
Loading historical data...
Loading historical data...
Loading historical data...
Loading historical data...
Loading historical data...
Loading historical data...

Documentation

Showing up to 5 results
|